Regional Weather Roundup
Issued by NWS Cleveland, OH

Home | Current Version | Previous Version | Graphics & Text | Print | Product List | Glossary On
Versions: 1 2 3 4 5 6 7 8 9 10 11 12 13 14 15 16 17 18 19 20 21 22 23 24 25 26 27 28 29 30 31 32 33 34 35 36 37 38 39 40 41 42 43 44 45 46 47 48 49 50
000
ASUS41 KCLE 301010
RWRCLE
OHIO REGIONAL WEATHER ROUNDUP
NATIONAL WEATHER SERVICE WILMINGTON, OH
600 AM EDT THU JUL 30 2015

NOTE: "FAIR" INDICATES FEW OR NO CLOUDS BELOW 12,000 FEET WITH NO
SIGNIFICANT WEATHER AND/OR OBSTRUCTIONS TO VISIBILITY.

OHZ001>008-015>018-024>027-034-035-043-044-301100-
   NORTHWEST OHIO

CITY           SKY/WX    TMP DP  RH WIND       PRES   REMARKS
DEFIANCE       CLEAR     63  58  83 SW3       29.99R
FINDLAY        CLEAR     63  58  83 W7        29.98R
TOLEDO EXPRESS CLEAR     62  58  86 W8        29.97R
TOLEDO EXEC    CLEAR     64  57  78 W5        29.97R
LIMA           PTCLDY    63  59  87 CALM      30.00S
$$

OHZ009>014-019>023-028>033-038-089-301100-
   NORTHEAST OHIO

CITY           SKY/WX    TMP DP  RH WIND       PRES   REMARKS
CLE-HOPKINS    CLOUDY    66  63  90 SW7       29.96S
CLE-LAKEFRONT  CLOUDY    76  63  64 W16       29.92R
CUY CO. ARPT   NOT AVBL
LORAIN-ELYRIA  CLOUDY    64  61  90 W5        29.96R
ASHTABULA      MOCLDY    66  62  87 CALM      29.94R
AKRON-CANTON   PTCLDY    69  63  81 W6        29.97R
WOOSTER        LGT RAIN  65  61  87 W3        29.99R
MANSFIELD      MOCLDY    67  58  72 W6        29.99R
YOUNGSTOWN     MOCLDY    65  64  97 CALM      29.95R
$$

OHZ042-051>053-060>062-070>072-077>081-301100-
  SOUTHWEST OHIO

CITY           SKY/WX    TMP DP  RH WIND       PRES   REMARKS
CINC-COVINGTON MOCLDY    70  60  70 NW9G17    30.03R
CINC-LUNKEN    MOCLDY    71  63  75 CALM      30.02R
HAMILTON       MOCLDY    68  63  84 NW5       30.03R
DAYTON         MOCLDY    68  63  84 NW7       30.03R
WRIGHT-PAT AFB MOCLDY    71  64  79 W5        30.01R
DAYTON GENERAL MOCLDY    71  63  75 NW5       30.02R
WILMINGTON     MOCLDY    71  63  75 N3        30.02R
$$

OHZ036-037-039>041-045>050-054>059-063>069-073>076-082>088-301100-
  CENTRAL AND SOUTHEAST OHIO

CITY           SKY/WX    TMP DP  RH WIND       PRES   REMARKS
COLUMBUS       CLOUDY    71  61  70 NW7       29.99R
OSU AIRPORT    MOCLDY    68  63  84 NW6       29.99S
BOLTON FIELD   CLOUDY    69  64  83 CALM      30.01R
RICKENBACK AFB CLOUDY    71  62  74 N6        29.99R
NEWARK         CLOUDY    71  65  81 CALM      29.99R
MARION         MOCLDY    67  59  75 W6        30.00R
LANCASTER      CLOUDY    70  67  90 CALM      29.99R
ZANESVILLE     CLOUDY    73  64  73 CALM      29.98R
NEW PHILLY     CLOUDY    71  65  81 CALM      29.98R
$$


USA.gov is the U.S. government's official web portal to all federal, state and local government web resources and services.